TimeCDT,TemperatureF,Dew PointF,Humidity,Sea Level PressureIn,VisibilityMPH,Wind Direction,Wind SpeedMPH,Gust SpeedMPH,PrecipitationIn,Events,Conditions,WindDirDegrees,DateUTC
12:11 AM,41.0,24.8,53,29.94,10.0,WNW,9.2,-,N/A,,Overcast,290,2012-10-10 05:11:00
12:31 AM,41.0,26.6,57,29.95,10.0,WNW,12.7,-,N/A,,Overcast,290,2012-10-10 05:31:00
12:52 AM,39.2,26.6,61,29.95,10.0,WNW,11.5,-,N/A,,Scattered Clouds,300,2012-10-10 05:52:00
1:11 AM,37.4,26.6,65,29.96,10.0,WNW,9.2,-,N/A,,Clear,300,2012-10-10 06:11:00
1:31 AM,37.4,24.8,60,29.97,10.0,NW,15.0,19.6,N/A,,Clear,320,2012-10-10 06:31:00
1:51 AM,37.4,24.8,60,29.97,10.0,WNW,10.4,-,N/A,,Clear,300,2012-10-10 06:51:00
2:11 AM,37.4,24.8,60,29.98,10.0,WNW,11.5,-,N/A,,Scattered Clouds,290,2012-10-10 07:11:00
2:32 AM,37.4,26.6,65,29.98,10.0,WNW,9.2,-,N/A,,Clear,290,2012-10-10 07:32:00
2:51 AM,37.4,26.6,65,29.98,10.0,WNW,10.4,-,N/A,,Clear,300,2012-10-10 07:51:00
3:11 AM,37.4,26.6,65,29.98,10.0,WNW,12.7,19.6,N/A,,Clear,290,2012-10-10 08:11:00
3:32 AM,35.6,24.8,65,29.99,10.0,WNW,12.7,17.3,N/A,,Clear,300,2012-10-10 08:32:00
3:51 AM,33.8,24.8,70,29.99,10.0,WNW,6.9,18.4,N/A,,Clear,290,2012-10-10 08:51:00
4:11 AM,33.8,24.8,70,30.00,10.0,WNW,12.7,16.1,N/A,,Clear,290,2012-10-10 09:11:00
4:32 AM,33.8,24.8,70,30.00,10.0,WNW,11.5,17.3,N/A,,Clear,300,2012-10-10 09:32:00
4:51 AM,33.8,26.6,75,30.01,10.0,WNW,9.2,-,N/A,,Clear,300,2012-10-10 09:51:00
5:11 AM,32.0,24.8,75,30.02,10.0,WNW,6.9,-,N/A,,Clear,300,2012-10-10 10:11:00
5:32 AM,32.0,24.8,75,30.03,10.0,WNW,5.8,-,N/A,,Clear,300,2012-10-10 10:32:00
5:51 AM,32.0,26.6,80,30.03,10.0,WNW,6.9,-,N/A,,Clear,300,2012-10-10 10:51:00
6:11 AM,32.0,26.6,80,30.04,10.0,WNW,5.8,-,N/A,,Clear,300,2012-10-10 11:11:00
6:32 AM,32.0,26.6,80,30.05,10.0,WNW,5.8,-,N/A,,Clear,300,2012-10-10 11:32:00
6:51 AM,32.0,26.6,80,30.05,10.0,West,5.8,-,N/A,,Clear,280,2012-10-10 11:51:00
7:11 AM,32.0,26.6,80,30.06,10.0,NW,4.6,-,N/A,,Clear,310,2012-10-10 12:11:00
7:32 AM,32.0,26.6,80,30.07,10.0,West,5.8,-,N/A,,Clear,280,2012-10-10 12:32:00
7:51 AM,32.0,24.8,75,30.07,10.0,West,4.6,-,N/A,,Clear,280,2012-10-10 12:51:00
8:32 AM,33.8,26.6,75,30.09,10.0,NW,5.8,-,N/A,,Clear,310,2012-10-10 13:32:00
8:51 AM,33.8,26.6,75,30.11,10.0,NW,9.2,-,N/A,,Clear,320,2012-10-10 13:51:00
9:11 AM,37.4,26.6,65,30.11,10.0,NW,8.1,-,N/A,,Clear,310,2012-10-10 14:11:00
9:32 AM,37.4,26.6,65,30.11,10.0,NW,9.2,-,N/A,,Clear,310,2012-10-10 14:32:00
9:51 AM,37.4,26.6,65,30.11,10.0,NW,10.4,-,N/A,,Clear,310,2012-10-10 14:51:00
10:11 AM,39.2,26.6,61,30.11,10.0,WNW,6.9,-,N/A,,Clear,300,2012-10-10 15:11:00
10:32 AM,41.0,26.6,57,30.11,10.0,NW,8.1,-,N/A,,Clear,310,2012-10-10 15:32:00
10:51 AM,42.8,24.8,49,30.12,10.0,WNW,8.1,-,N/A,,Clear,290,2012-10-10 15:51:00
11:12 AM,44.6,26.6,49,30.12,10.0,WNW,11.5,-,N/A,,Scattered Clouds,300,2012-10-10 16:12:00
11:51 AM,44.6,24.8,46,30.12,10.0,WNW,11.5,16.1,N/A,,Scattered Clouds,300,2012-10-10 16:51:00
12:12 PM,46.4,26.6,46,30.12,10.0,WNW,11.5,16.1,N/A,,Scattered Clouds,300,2012-10-10 17:12:00
12:32 PM,46.4,23.0,40,30.11,10.0,West,11.5,16.1,N/A,,Scattered Clouds,280,2012-10-10 17:32:00
12:51 PM,46.4,23.0,40,30.12,10.0,WNW,12.7,19.6,N/A,,Scattered Clouds,300,2012-10-10 17:51:00
1:12 PM,46.4,23.0,40,30.11,10.0,NW,13.8,20.7,N/A,,Scattered Clouds,310,2012-10-10 18:12:00
1:32 PM,46.4,21.2,37,30.11,10.0,West,9.2,16.1,N/A,,Scattered Clouds,280,2012-10-10 18:32:00
1:51 PM,46.4,19.4,34,30.09,10.0,NW,8.1,-,N/A,,Scattered Clouds,310,2012-10-10 18:51:00
2:12 PM,48.2,19.4,32,30.09,10.0,NW,12.7,18.4,N/A,,Clear,310,2012-10-10 19:12:00
2:32 PM,46.4,19.4,34,30.08,10.0,West,11.5,16.1,N/A,,Scattered Clouds,280,2012-10-10 19:32:00
2:51 PM,48.2,21.2,34,30.09,10.0,WNW,10.4,16.1,N/A,,Scattered Clouds,300,2012-10-10 19:51:00
3:12 PM,48.2,19.4,32,30.08,10.0,WNW,9.2,18.4,N/A,,Scattered Clouds,290,2012-10-10 20:12:00
3:31 PM,46.4,19.4,34,30.08,10.0,WNW,8.1,16.1,N/A,,Scattered Clouds,300,2012-10-10 20:31:00
3:51 PM,51.8,21.2,30,30.06,10.0,West,5.8,19.6,N/A,,Mostly Cloudy,280,2012-10-10 20:51:00
4:12 PM,50.0,21.2,32,30.07,10.0,West,9.2,17.3,N/A,,Mostly Cloudy,280,2012-10-10 21:12:00
4:31 PM,50.0,21.2,32,30.07,10.0,WNW,10.4,-,N/A,,Mostly Cloudy,290,2012-10-10 21:31:00
4:51 PM,50.0,21.2,32,30.06,10.0,WNW,8.1,-,N/A,,Scattered Clouds,300,2012-10-10 21:51:00
5:12 PM,50.0,21.2,32,30.06,10.0,WSW,4.6,-,N/A,,Scattered Clouds,250,2012-10-10 22:12:00
5:31 PM,50.0,21.2,32,30.05,10.0,West,3.5,-,N/A,,Scattered Clouds,280,2012-10-10 22:31:00
5:51 PM,48.2,21.2,34,30.06,10.0,West,3.5,-,N/A,,Clear,260,2012-10-10 22:51:00
6:12 PM,48.2,21.2,34,30.05,10.0,WSW,4.6,-,N/A,,Clear,240,2012-10-10 23:12:00
6:31 PM,46.4,21.2,37,30.05,10.0,Calm,Calm,-,N/A,,Clear,0,2012-10-10 23:31:00
6:51 PM,46.4,23.0,40,30.05,10.0,Calm,Calm,-,N/A,,Clear,0,2012-10-10 23:51:00
7:11 PM,46.4,24.8,43,30.04,10.0,South,3.5,-,N/A,,Clear,190,2012-10-11 00:11:00
7:31 PM,46.4,26.6,46,30.03,10.0,Calm,Calm,-,N/A,,Scattered Clouds,0,2012-10-11 00:31:00
7:52 PM,46.4,26.6,46,30.04,10.0,Calm,Calm,-,N/A,,Mostly Cloudy,0,2012-10-11 00:52:00
8:11 PM,46.4,26.6,46,30.03,10.0,Calm,Calm,-,N/A,,Mostly Cloudy,0,2012-10-11 01:11:00
8:32 PM,46.4,26.6,46,30.03,10.0,Calm,Calm,-,N/A,,Mostly Cloudy,0,2012-10-11 01:32:00
8:52 PM,46.4,26.6,46,30.04,10.0,Calm,Calm,-,N/A,,Scattered Clouds,0,2012-10-11 01:52:00
9:11 PM,46.4,28.4,50,30.02,10.0,Calm,Calm,-,N/A,,Clear,0,2012-10-11 02:11:00
9:32 PM,46.4,28.4,50,30.02,10.0,Calm,Calm,-,N/A,,Scattered Clouds,0,2012-10-11 02:32:00
9:52 PM,46.4,30.2,53,30.01,10.0,Calm,Calm,-,N/A,,Overcast,0,2012-10-11 02:52:00
10:11 PM,46.4,28.4,50,30.00,10.0,Calm,Calm,-,N/A,,Mostly Cloudy,0,2012-10-11 03:11:00
10:52 PM,46.4,28.4,50,29.99,10.0,South,3.5,-,N/A,,Scattered Clouds,180,2012-10-11 03:52:00
11:11 PM,46.4,28.4,50,29.99,10.0,Calm,Calm,-,N/A,,Mostly Cloudy,0,2012-10-11 04:11:00
11:32 PM,46.4,26.6,46,29.98,10.0,SSE,4.6,-,N/A,,Overcast,160,2012-10-11 04:32:00
11:52 PM,46.4,26.6,46,29.96,10.0,SSE,3.5,-,N/A,,Overcast,160,2012-10-11 04:52:00